Location: Peach Mountain Observatory
(42.3967°N, 83.9367°W)
Time: 07:52:37
(UTC-05:00)

Courier 1B - All Passes

Search period start: 28 January 2020 00:00
Search period end: 07 February 2020 00:00
Orbit: 962 x 1209 km, 28.3° (Epoch: 27 January)

Date Brightness Start Highest point End Pass type
(mag) Time Alt. Az. Time Alt. Az. Time Alt. Az.
28 Jan - 01:04:55 10° S 01:07:47 13° SSE 01:10:42 10° SE night (unlit)
28 Jan - 02:55:20 10° SW 03:00:44 24° S 03:06:23 10° ESE visible
28 Jan - 04:48:10 10° WSW 04:53:59 26° S 05:00:02 10° SE visible
28 Jan - 06:42:34 10° WSW 06:47:13 17° SSW 06:51:57 10° SSE visible
29 Jan - 02:02:13 10° SSW 02:07:10 21° SSE 02:12:20 10° ESE night (unlit)
29 Jan - 03:54:37 10° SW 04:00:20 26° S 04:06:19 10° SE visible
29 Jan - 05:48:29 10° WSW 05:53:35 20° SSW 05:58:50 10° SSE visible
30 Jan - 01:09:18 10° SSW 01:13:38 18° SSE 01:18:07 10° ESE night (unlit)
30 Jan - 03:01:10 10° SW 03:06:43 26° S 03:12:31 10° SE visible
30 Jan - 04:54:37 10° WSW 04:59:57 22° SSW 05:05:29 10° SE visible
30 Jan - 06:50:51 10° SW 06:53:03 11° SSW 06:55:16 10° S visible
31 Jan - 00:16:44 10° S 00:20:10 15° SSE 00:23:41 10° SE night (unlit)
31 Jan - 02:07:51 10° SW 02:13:08 24° S 02:18:39 10° ESE night (unlit)
31 Jan - 04:00:55 10° WSW 04:06:20 24° S 04:11:58 10° SE visible
31 Jan - 05:55:51 10° SW 05:59:28 14° SSW 06:03:09 10° S visible
31 Jan - 23:24:55 10° S 23:26:42 11° SSE 23:28:32 10° SE night (unlit)
01 Feb - 01:14:39 10° SW 01:19:35 22° S 01:24:43 10° ESE night (unlit)
01 Feb - 03:07:19 10° SW 03:12:43 25° S 03:18:22 10° SE visible
01 Feb - 05:01:33 10° SW 05:05:53 17° SSW 05:10:20 10° SSE visible
02 Feb - 00:21:36 10° SSW 00:26:04 19° SSE 00:30:41 10° ESE night (unlit)
02 Feb - 02:13:50 10° SW 02:19:08 25° S 02:24:40 10° SE night (unlit)
02 Feb - 04:07:34 10° WSW 04:12:18 19° SSW 04:17:12 10° SSE visible
02 Feb - 23:28:45 10° SSW 23:32:36 16° SSE 23:36:31 10° SE night (unlit)
03 Feb - 01:20:27 10° SW 01:25:35 24° S 01:30:56 10° SE night (unlit)
03 Feb - 03:13:47 10° WSW 03:18:43 21° S 03:23:51 10° SE visible
03 Feb - 05:10:00 10° SW 05:11:45 11° SSW 05:13:33 10° S visible
03 Feb - 22:36:18 10° S 22:39:09 13° SSE 22:42:02 10° SE night (unlit)
04 Feb - 00:27:09 10° SW 00:32:04 23° S 00:37:07 10° SE night (unlit)
04 Feb - 02:20:07 10° SW 02:25:10 23° S 02:30:24 10° SE night (unlit)
04 Feb - 04:14:59 10° SW 04:18:13 14° SSW 04:21:32 10° S visible
04 Feb - 21:45:32 10° SSE 21:45:43 10° SSE 21:45:55 10° SSE night (unlit)
04 Feb - 23:33:58 10° SW 23:38:34 20° S 23:43:15 10° ESE night (unlit)
05 Feb - 01:26:34 10° SW 01:31:37 23° S 01:36:50 10° SE night (unlit)
05 Feb - 03:20:45 10° SW 03:24:41 16° SSW 03:28:45 10° SSE night (unlit)
05 Feb - 22:40:55 10° SSW 22:45:05 18° SSE 22:49:19 10° SE night (unlit)
06 Feb - 00:33:06 10° SW 00:38:06 23° S 00:43:14 10° SE night (unlit)
06 Feb - 02:26:47 10° SW 02:31:10 18° SSW 02:35:40 10° SSE night (unlit)
06 Feb - 21:48:05 10° SSW 21:51:38 15° SSE 21:55:12 10° SE visible
06 Feb - 23:39:41 10° SW 23:44:35 23° S 23:49:34 10° SE night (unlit)
